#timestamp,LO_Frequency,Hit,StdDev 
1502798415.3,286047002.2,N,1.2
1502798435.1,286047002.8,N,1.2
1502798455.9,286047002.1,N,1.2
1502798475.7,286047002.7,N,1.2
1502798495.5,286046999.7,N,1.2
1502798515.4,286047002.1,N,1.2
1502798535.2,286047002.1,N,1.2
1502798555.0,286046999.7,N,1.2
1502798555.9,286046999.7,N,1.3
1502798575.8,286047001.9,N,1.2
1502798595.6,286047001.8,N,1.2
1502798615.5,286047001.7,N,1.2
1502798635.3,286047001.5,N,1.2
1502798655.1,286047003.7,Y,0.0
1502798675.9,286047002.5,P,0.5
1502798695.7,286047002.3,P,0.4
1502798715.6,286047000.1,N,0.9
1502798735.4,286047000.1,N,1.0
1502798755.2,286046999.8,N,1.1
1502798775.1,286047002.1,N,1.1
1502798776.0,286047002.1,N,1.1
1502798795.8,286047000.1,N,1.1
1502798815.7,286047002.8,N,1.1
1502798835.5,286047002.1,N,1.1
1502798855.3,286047002.6,N,1.1
1502798875.2,286047002.3,N,1.1
1502798895.0,286047002.3,N,1.1
1502798895.9,286047002.3,N,1.0
1502798915.8,286047002.3,N,1.0
1502798935.6,286047002.8,N,1.0
1502798955.4,286047000.1,N,1.1
1502798975.3,286047000.0,N,1.1
1502798995.1,286047002.7,N,1.1
1502799015.9,286047002.3,N,1.1
1502799035.7,286047002.6,N,1.1
1502799055.6,286047002.5,N,1.1
1502799075.4,286047002.7,N,1.1
1502799095.2,286047002.0,N,1.0
1502799115.1,286047002.3,N,1.0
1502799116.0,286047002.3,N,1.0
1502799135.8,286047002.0,N,1.0
1502799155.7,286047002.1,N,1.0
1502799175.5,286047001.5,N,1.0
1502799195.3,286047001.6,N,1.0
1502799215.2,286047004.0,Y,0.0
1502799235.0,286047001.0,P,0.4
1502799235.9,286047001.0,N,0.4
1502799255.8,286047000.7,N,0.4
1502799275.6,286047000.2,N,0.5
1502799295.4,286046999.9,N,0.6
1502799315.3,286047002.8,Y,0.0
1502799335.1,286046998.6,P,1.1
1502799355.9,286046998.6,N,1.0
1502799375.7,286046998.2,N,1.0
1502799395.5,286046998.9,N,0.9
1502799415.4,286047000.7,N,1.0
1502799435.2,286046998.5,N,1.0
1502799455.1,286047000.7,N,1.1
1502799456.0,286047000.7,N,1.1
1502799475.8,286047000.6,N,1.1
1502799495.6,286047001.2,N,1.1
1502799515.5,286046998.5,N,1.1
1502799535.3,286047001.2,N,1.2
1502799555.1,286046998.5,N,1.2
1502799575.9,286047001.0,N,1.2
1502799595.7,286047001.2,N,1.2
1502799615.6,286047001.2,N,1.2
1502799635.4,286047000.9,N,1.2
1502799655.2,286047000.6,N,1.2
1502799675.1,286047000.6,N,1.1
1502799676.0,286047000.6,N,1.1
1502799695.8,286047001.0,N,1.1
1502799715.7,286047000.9,N,1.1
1502799735.5,286046999.9,N,1.1
1502799755.3,286047000.4,N,1.0
1502799775.2,286046999.7,N,1.0
1502799795.0,286047002.4,N,1.1
1502799795.9,286047002.4,N,1.2
1502799815.8,286047000.4,N,1.1
1502799835.6,286047002.3,N,1.2
1502799855.4,286046999.8,N,1.2
1502799875.3,286047000.3,N,1.1
1502799895.1,286047000.3,N,1.1
1502799915.9,286046999.8,N,1.0
1502799935.7,286046999.9,N,1.0
1502799955.5,286047000.0,N,1.0
1502799975.4,286047000.1,N,0.9
1502799995.2,286046999.7,N,0.9
1502800015.0,286047002.8,Y,0.0
1502800016.0,286047002.8,P,1.1
1502800035.8,286046999.8,N,1.3
1502800055.6,286047000.2,N,1.2
1502800075.5,286047000.3,N,1.1
1502800095.3,286047000.6,N,1.0
1502800115.2,286047001.0,N,0.9
1502800135.9,286047000.2,N,0.9
1502800155.7,286047001.0,N,0.8
1502800175.6,286047000.2,N,0.8
1502800195.4,286047000.6,N,0.8
1502800215.3,286047000.3,N,0.7
1502800235.1,286047000.7,N,0.7
1502800236.0,286047000.7,N,0.7
1502800255.8,286046999.8,N,0.7
1502800275.7,286047000.1,N,0.7
1502800295.5,286047000.0,N,0.7
1502800315.3,286047000.5,N,0.7
1502800335.2,286046999.8,N,0.7
1502800355.0,286047000.9,N,0.6
1502800355.9,286047000.9,N,0.6
1502800375.8,286047000.7,N,0.6
1502800395.6,286047000.7,N,0.6
1502800415.4,286047001.0,N,0.6
1502800435.3,286047000.4,N,0.6
1502800455.1,286047001.0,N,0.6
1502800475.9,286047000.7,N,0.6
1502800495.7,286047000.0,N,0.6
1502800515.5,286047000.4,N,0.6
1502800535.4,286047000.0,N,0.6
1502800555.2,286047002.8,Y,0.0
1502800575.1,286046999.9,P,0.3
1502800576.0,286046999.9,N,0.3
1502800595.8,286047000.4,N,0.3
1502800615.6,286046998.1,Y,0.0
1502800635.5,286046998.6,P,0.8
1502800655.3,286046998.3,N,0.8
1502800675.2,286046998.8,N,0.7
1502800695.0,286047000.3,N,0.8
1502800695.9,286047000.3,N,0.9
1502800715.7,286046998.6,N,0.8
1502800735.6,286046999.0,N,0.8
1502800755.4,286046999.6,N,0.8
1502800775.3,286046999.1,N,0.7
1502800795.1,286046998.8,N,0.7
1502800815.8,286046996.7,Y,0.0
1502800835.7,286046996.6,P,1.3
1502800855.5,286046999.2,N,1.2
1502800875.4,286046997.1,N,1.2
1502800895.2,286046996.8,N,1.2
1502800915.0,286046997.4,N,1.1
1502800915.9,286046997.4,N,1.0
1502800935.8,286046997.4,N,1.0
1502800955.6,286046997.0,Y,0.0
1502800975.5,286046998.9,P,0.6
1502800995.3,286046998.2,N,0.5
1502801015.1,286046998.5,N,0.5
1502801035.9,286047001.2,N,1.2
1502801055.7,286046998.8,N,1.1
1502801075.5,286046999.5,N,1.1
1502801095.4,286046996.8,Y,0.0
1502801115.2,286046999.3,P,0.2
1502801135.1,286047000.5,N,0.7
1502801136.0,286047000.5,N,0.7
1502801155.8,286046998.8,N,0.7
1502801175.7,286046998.6,N,0.8
1502801195.5,286046998.8,N,0.8
1502801215.3,286046998.8,N,0.7
1502801235.2,286046998.9,N,0.7
1502801255.0,286046996.7,Y,0.0
1502801255.9,286046996.7,P,1.3
1502801275.8,286046999.6,N,1.3
1502801295.6,286046997.0,N,1.3
1502801315.4,286046997.5,N,1.2
1502801335.3,286046995.4,Y,0.0
1502801355.1,286046996.6,P,0.7
1502801375.9,286046999.4,N,1.1
1502801395.7,286046996.7,N,1.1
1502801415.5,286046998.9,N,1.1
1502801435.4,286046998.8,N,1.1
1502801455.2,286046998.8,N,1.0
1502801475.1,286046996.8,Y,0.0
1502801476.0,286046996.8,P,0.7
1502801495.8,286047001.0,N,1.7
1502801515.6,286046998.1,N,1.5
1502801535.5,286046998.2,N,1.4
1502801555.3,286047001.2,N,1.6
1502801575.1,286046998.8,N,1.5
1502801595.9,286046999.3,N,1.4
1502801615.7,286047000.8,N,1.5
1502801635.6,286047000.7,N,1.5
1502801655.4,286046998.3,N,1.4
1502801675.2,286047000.9,N,1.4
1502801695.1,286046998.6,N,1.4
1502801696.0,286046998.6,N,1.4
1502801715.8,286046998.5,N,1.3
1502801735.7,286046999.5,N,1.3
1502801755.5,286046999.4,N,1.2
1502801775.3,286046998.3,N,1.2
1502801795.2,286046998.5,N,1.2
1502801815.0,286046998.2,N,1.2
1502801815.9,286046998.2,N,1.2
1502801835.8,286046997.1,N,1.2
1502801855.6,286046996.6,N,1.3
1502801875.4,286046999.2,N,1.3
1502801895.3,286046997.3,N,1.3
1502801915.1,286046997.4,N,1.3
1502801935.9,286046997.0,N,1.3
1502801955.7,286046997.4,N,1.3
1502801975.5,286046997.6,N,1.3
1502801995.4,286046994.9,Y,0.0
